This demonstration page uses our WeatherBlox Daily Observations layout. Learn more.

Left ArrowRight Arrow

Hourly Observations for September 27, 2019

Temp ( °F °C ) Dew Point ( °F °C ) Humidity (%) Winds ( mph kmh ) Pressure ( in mb ) Visibility ( mi km ) Precip ( " mm )
12:59 am 00:59 Mostly Cloudy 78 25.6 69 20.6 74 74 NE 8 13 29.94 1014 10 16 0.00 0.00
1:59 am 01:59 Mostly Cloudy 76 24.4 67 19.4 74 74 NE 13 20 29.95 1014 10 16 0.00 0.00
2:59 am 02:59 Partly Cloudy 75 23.9 65 18.3 71 71 ENE 12 19 29.96 1015 10 16 0.00 0.00
3:59 am 03:59 Mostly Cloudy 75 23.9 66 18.9 74 74 ENE 13 20 29.98 1015 10 16 0.00 0.00
4:59 am 04:59 Partly Cloudy 74 23.3 65 18.3 74 74 ENE 14 22 29.99 1016 10 16 0.00 0.00
5:59 am 05:59 Partly Cloudy 74 23.3 64 17.8 71 71 ENE 14 22 30.01 1016 10 16 0.00 0.00
6:59 am 06:59 Mostly Sunny 73 22.8 64 17.8 74 74 ENE 14 22 30.03 1017 10 16 0.00 0.00
7:59 am 07:59 Mostly Sunny 74 23.3 63 17.2 69 69 E 14 22 30.07 1018 10 16 0.00 0.00
8:59 am 08:59 Sunny 76 24.4 63 17.2 64 64 E 16 26 30.09 1019 10 16 0.00 0.00
9:59 am 09:59 Mostly Sunny 77 25 62 16.7 60 60 E 12 19 30.11 1020 10 16 0.00 0.00
10:59 am 10:59 Mostly Sunny 78 25.6 62 16.7 58 58 E 14 22 30.13 1020 10 16 0.00 0.00
11:59 am 11:59 Mostly Cloudy 79 26.1 62 16.7 56 56 E 14 22 30.13 1020 10 16 0.00 0.00
12:59 pm 12:59 Mostly Cloudy 79 26.1 63 17.2 58 58 E 10 17 30.12 1020 10 16 0.00 0.00
1:59 pm 13:59 Mostly Cloudy 78 25.6 62 16.7 58 58 E 10 17 30.11 1020 10 16 0.00 0.00
2:59 pm 14:59 Mostly Cloudy 79 26.1 64 17.8 60 60 ENE 10 17 30.10 1019 10 16 0.00 0.00
3:59 pm 15:59 Mostly Cloudy 78 25.6 64 17.8 62 62 E 14 22 30.09 1019 10 16 0.00 0.00
4:59 pm 16:59 Sunny 77 25 66 18.9 69 69 E 13 20 30.09 1019 10 16 0.00 0.00
5:59 pm 17:59 Mostly Sunny 76 24.4 67 19.4 74 74 E 10 17 30.09 1019 10 16 0.00 0.00
6:59 pm 18:59 Partly Cloudy 73 22.8 66 18.9 79 79 E 7 11 30.11 1020 10 16 0.00 0.00
7:59 pm 19:59 Partly Cloudy 72 22.2 66 18.9 82 82 ESE 5 7 30.12 1020 10 16 0.00 0.00
8:59 pm 20:59 Partly Cloudy 71 21.7 67 19.4 87 87 E 6 9 30.13 1020 10 16 0.00 0.00
9:59 pm 21:59 Mostly Cloudy 73 22.8 68 20 84 84 E 8 13 30.13 1020 10 16 0.00 0.00
10:59 pm 22:59 Mostly Cloudy 73 22.8 68 20 84 84 E 6 9 30.14 1021 10 16 0.00 0.00
11:59 pm 23:59 Mostly Cloudy 73 22.8 68 20 84 84 ESE 3 6 30.13 1020 10 16 0.00 0.00

Powered by AerisWeather